This demonstration page uses our WeatherBlox Daily Observations layout. Learn more.

Left ArrowRight Arrow

39.01783, -85.05884

Hourly Observations for April 17, 2020

Temp ( °F °C ) Dew Point ( °F °C ) Humidity (%) Winds ( mph kmh ) Pressure ( in mb ) Visibility ( mi km ) Precip ( " mm )
12:52 am 00:52 Cloudy 45 7.2 29 -1.7 54 54 N N/A 30.28 1025 10 16 N/A
1:52 am 01:52 Cloudy 45 7.2 30 -1.1 56 56 N 7 11 30.26 1025 10 16 N/A
2:52 am 02:52 Cloudy 44 6.7 30 -1.1 58 58 ENE 9 15 30.21 1023 10 16 N/A
3:52 am 03:52 Cloudy 44 6.7 29 -1.7 55 55 E 9 15 30.19 1022 10 16 N/A
4:52 am 04:52 Cloudy 43 6.1 29 -1.7 58 58 ESE 9 15 30.17 1022 10 16 N/A
5:52 am 05:52 Cloudy 43 6.1 29 -1.7 58 58 ESE 8 13 30.15 1021 10 16 N/A
6:52 am 06:52 Cloudy 43 6.1 29 -1.7 58 58 ESE 8 13 30.13 1020 10 16 N/A
7:52 am 07:52 Cloudy 44 6.7 28 -2.2 53 53 SE 13 20 30.12 1020 10 16 N/A
8:52 am 08:52 Cloudy 45 7.2 28 -2.2 52 52 SE 14 22 30.10 1019 10 16 N/A
9:52 am 09:52 Cloudy 46 7.8 29 -1.7 51 51 SSE 13 20 30.07 1018 10 16 N/A
10:52 am 10:52 Cloudy with Light Rain 48 8.9 31 -0.6 52 52 S 10 17 30.06 1018 10 16 0.00 0.00
11:52 am 11:52 Cloudy with Light Rain 50 10 34 1.1 54 54 S 14 22 30.01 1016 10 16 0.00 0.00
12:30 pm 12:30 Cloudy with Rain 48 8.9 38 3.3 68 68 SSW 13 20 30.02 1017 5 8 0.03 0.76
12:52 pm 12:52 Cloudy with Light Rain 49 9.4 41 5 74 74 SSW 12 19 29.98 1015 5 8 0.06 1.52
1:12 pm 13:12 Cloudy with Light Rain 48 8.9 42 5.6 80 80 SSW 16 26 29.97 1015 8 13 0.01 0.25
1:52 pm 13:52 Cloudy with Light Rain 51 10.6 43 6.1 74 74 SSW 9 15 29.94 1014 10 16 0.01 0.25
2:52 pm 14:52 Cloudy with Light Rain 52 11.1 44 6.7 75 75 SSW 12 19 29.91 1013 9 14 0.00 0.00
3:52 pm 15:52 Cloudy with Light Rain 52 11.1 45 7.2 77 77 SW 18 30 29.91 1013 7 11 0.01 0.25
4:52 pm 16:52 Cloudy with Light Rain 51 10.6 46 7.8 83 83 SW 15 24 29.90 1013 9 14 0.04 1.02
5:38 pm 17:38 Cloudy with Drizzle 50 10 46 7.8 86 86 SW 16 26 29.91 1013 3 5 0.01 0.25
5:52 pm 17:52 Cloudy with Mist and Fog 50 10 46 7.8 86 86 SW 15 24 29.90 1013 5 8 0.01 0.25
6:03 pm 18:03 Cloudy with Light Rain 50 10 46 7.8 86 86 WSW 15 24 29.91 1013 3 5 0.00 0.00
6:25 pm 18:25 Cloudy with Light Rain 50 10 46 7.8 86 86 WSW 12 19 29.91 1013 5 8 0.00 0.00
6:52 pm 18:52 Cloudy with Light Rain 50 10 46 7.8 86 86 W 10 17 29.90 1012 5 8 0.00 0.00
7:49 pm 19:49 Cloudy with Light Rain 48 9 46 8 94 94 W 10 17 29.90 1013 3 4 0.03 0.76
7:52 pm 19:52 Cloudy with Light Rain 49 9.4 46 7.8 90 90 W 14 22 29.88 1012 3 4 0.03 0.76
8:22 pm 20:22 Cloudy with Light Rain 49 9.4 46 7.8 90 90 W 10 17 29.89 1012 3 5 0.03 0.76
8:45 pm 20:45 Cloudy with Light Rain 49 9.4 46 7.8 90 90 WSW 9 15 29.90 1013 5 8 0.05 1.27
8:52 pm 20:52 Cloudy with Light Rain 49 9.4 46 7.8 90 90 W 8 13 29.88 1012 6 10 0.05 1.27
9:05 pm 21:05 Cloudy with Light Rain 49 9.4 46 7.8 90 90 WNW 17 28 29.90 1013 5 8 0.01 0.25
9:27 pm 21:27 Cloudy with Light Rain 47 8.3 44 6.7 90 90 WNW 16 26 29.92 1013 8 13 0.02 0.51
9:52 pm 21:52 Cloudy with Light Rain 46 7.8 42 5.6 86 86 WNW 15 24 29.91 1013 7 11 0.03 0.76
10:12 pm 22:12 Cloudy with Light Rain 45 7.2 42 5.6 90 90 WNW 12 19 29.94 1014 6 10 0.02 0.51
10:52 pm 22:52 Cloudy with Light Rain 44 6.7 41 5 89 89 NW 17 28 29.93 1013 6 10 0.04 1.02
11:29 pm 23:29 Cloudy 43 6.1 39 3.9 86 86 NW 16 26 29.95 1014 7 11 0.00 0.00
11:52 pm 23:52 Cloudy 42 5.6 38 3.3 85 85 NNW 20 31 29.93 1014 7 11 0.00 0.00
11:59 pm 23:59 Cloudy with Mist and Fog 42 5.6 38 3.3 85 85 NNW 16 26 29.97 1015 6 10 N/A

Powered by AerisWeather